Location: East Guldeford
(50.9500°N, 0.7500°E)
Time: 07:48:23
(UTC+00:00)

Okean 2 Rocket - Pass Details

Date: 12 May 2021
Orbit: 617 x 641 km, 82.5° (Epoch: 16 June)

Event Time Altitude Azimuth Distance (km) Brightness Sun altitude
Rises 23:36:19 0° 354° (N) 2,906 8.1 -20.6°
Reaches altitude 10° 23:38:41 10° 2° (N) 1,994 6.8 -20.6°
Maximum altitude 23:42:50 40° 73° (ENE) 921 4.0 -20.6°
Enters shadow 23:44:15 31° 115° (ESE) 1,096 4.1 -20.6°
